Regional Weather Roundup
Issued by NWS

Home | Current Version | Previous Version | Text Only | Print | Product List | Glossary On
Versions: 1 2 3 4 5 6 7 8 9 10 11 12 13 14 15 16 17 18 19 20 21 22 23 24 25 26 27 28 29 30 31 32 33 34 35 36 37 38 39 40 41 42 43 44 45 46 47 48 49 50
000
ASUS43 KDTX 021001
RWRMI
MICHIGAN HOURLY REGIONAL WEATHER ROUNDUP
NATIONAL WEATHER SERVICE DETROIT/PONTIAC MI
600 AM EDT SUN AUG 02 2015

NOTE: "FAIR" INDICATES FEW OR NO CLOUDS BELOW 12,000 FEET WITH NO
SIGNIFICANT WEATHER AND/OR OBSTRUCTION TO VISIBILITY.

MIZ047>049-052>055-059>063-066>070-074>076-081>083-021100-
SOUTHEAST LOWER MICHIGAN

CITY           SKY/WX    TMP DP  RH WIND       PRES   REMARKS
ADRIAN         CLEAR     62  58  86 W3        29.91R
ALMA           CLEAR     58  56  91 CALM      29.85F
ANN ARBOR      CLEAR     56  55  97 CALM      29.89S
BAD AXE        CLEAR     56  51  83 SW5       29.85S
CARO           CLEAR     52  51  97 CALM      29.85S
DETROIT CITY   CLEAR     65  55  70 W6        29.88S
DETROIT        PTCLDY    63  57  81 S5        29.89S
FLINT          CLEAR     64  55  72 S6        29.87S
GROSSE ILE     CLEAR     66  57  72 W5        29.87S
HILLSDALE      CLEAR     66  64  93 W3        29.91S
HOWELL         CLEAR     62  56  82 SW5       29.88S

CITY           SKY/WX    TMP DP  RH WIND       PRES   REMARKS
JACKSON        CLEAR     61  58  90 SW5       29.89S
LAMBERTVILLE   CLEAR     67  60  78 CALM      29.90S
LANSING        CLEAR     63  56  78 SW6       29.87F
LAPEER         FAIR      51  51 100 CALM      29.87S
MASON          CLEAR     59  55  87 CALM      29.88F
MONROE         CLEAR     61  57  88 CALM      29.88S
PONTIAC        PTCLDY    61  56  83 CALM      29.88S
PORT HOPE        N/A     63  54  72 SW8       29.81S
PORT HURON     CLEAR     52  52 100 CALM      29.87S
TRI CITIES     CLEAR     62  54  74 S7        29.85S
MIDLAND        FAIR      53  52  95 CALM      29.83F
TROY           CLEAR     64  55  72 CALM      29.90S
SAGINAW HB     CLEAR     61  54  77 SW7       29.84S
$$
MIZ043>046-050>051-056>058-064>065-071>073-077>080-021100-
SOUTHWEST LOWER MICHIGAN

CITY           SKY/WX    TMP DP  RH WIND       PRES   REMARKS
BATTLE CREEK   CLEAR     65  61  87 SW6       29.88F
BENTON HARBOR  PTCLDY    72  66  81 SW9       29.87S
BIG RAPIDS     MOCLDY    57  55  94 CALM      29.83S
COLDWATER      CLEAR     64  61  91 SW5       29.90S
FREMONT        FAIR      60  58  93 CALM      29.83S
HOLLAND        CLEAR     71  67  87 SW7       29.86S
GRAND RAPIDS   MOCLDY    66  61  84 SW7       29.86S
IONIA          FAIR      63  57  82 SW5       29.85S
KALAMAZOO      CLEAR     65  61  87 SW6       29.89S
LUDINGTON      CLOUDY    71  64  77 S6        29.80F
MARSHALL       CLEAR     64  60  87 CALM      29.88F
MOUNT PLEASANT CLEAR     60  55  82 CALM      29.83S
MUSKEGON       MOCLDY    72  67  84 SW8       29.83S
SOUTH HAVEN    PTCLDY    73  67  79 SW9       29.86S
$$
MIZ016>042-021100-
NORTHERN LOWER MICHIGAN

CITY           SKY/WX    TMP DP  RH WIND       PRES   REMARKS
ALPENA         PTCLDY    61  51  70 SW5       29.77F
BEAVER ISLAND  CLEAR     68  60  76 S9        29.70F HAZE
BELLAIRE       CLEAR     64  56  77 S5        29.77S
CADILLAC       PTCLDY    57  53  88 CALM      29.81F
CHARLEVOIX     CLEAR     67  58  73 S9        29.76F
FRANKFORT      MOCLDY    71  64  78 S7        29.76F
GAYLORD        CLEAR     64  55  72 SW12      29.79F
GRAYLING       CLEAR     62  55  79 SW6       29.81F
HARBOR SPRINGS CLEAR     65  55  69 CALM      29.74F
HOUGHTON LAKE  CLEAR     63  57  81 SW6       29.82F
MANISTEE       CLOUDY    59  54  82 CALM      29.79S
OSCODA         CLEAR     61  53  75 SW7       29.79S
PELLSTON       CLEAR     67  54  63 SW7       29.73F
ROGERS CITY    PTCLDY    62  52  71 SW8       29.75F
TRAVERSE CITY  PTCLDY    67  58  72 VRB5      29.74F
$$
MIZ007>008-015-021100-
EASTERN UPPER MICHIGAN

CITY           SKY/WX    TMP DP  RH WIND       PRES   REMARKS
KINROSS        CLEAR     63  63 100 SW5       29.69F
MACKINAC ISLAN   N/A     67  57  70 SW10G17   29.70F
NEWBERRY       PTCLDY    61  58  90 SW8       29.68F
S. S. MARIE    PTCLDY    62  60  93 VRB3      29.68F
MUNISING         N/A     65  54  67 S10       29.65F
$$
MIZ004>006-011>014-085-021100-
CENTRAL UPPER MICHIGAN

CITY           SKY/WX    TMP DP  RH WIND       PRES   REMARKS
MANISTIQUE     PTCLDY    63  57  82 SW6       29.68F
ESCANABA       PTCLDY    63  55  77 CALM      29.68F
MENOMINEE      MOCLDY    64  55  72 CALM      29.68F
SAWYER-GWINN   MOCLDY    61  54  77 SW6       29.68F
$$
MIZ001>003-009>011-084-021100-
WESTERN UPPER MICHIGAN

CITY           SKY/WX    TMP DP  RH WIND       PRES   REMARKS
IRON MOUNTAIN  MOCLDY    60  55  83 CALM      29.68F
HOUGHTON       CLOUDY    65  55  70 NW15G25   29.65R
COPPER HARBOR    N/A     61  57  87 N12       29.62F
IRONWOOD       MOCLDY    68  64  88 SW6       29.65S
$$

ABBREVIATIONS USED IN REMARKS
   TC - TEMPERATURE IN CELSIUS
  WCI - WIND CHILL INDEX
   HX - HEAT INDEX
  VSB - VISIBILITY



USA.gov is the U.S. government's official web portal to all federal, state and local government web resources and services.